Weather History for KPTV - November, 2013

Change the Weather History Date:

Wednesday, November 6, 2013

  Actual Average Record
Temperature  
Mean Temperature 55 °F -  
Max Temperature 73 °F 74 °F 88 °F (1949)
Min Temperature 37 °F 46 °F 37 °F (1959)
Degree Days  
Heating Degree Days 10    
Growing Degree Days 5 (Base 50)    
Moisture  
Dew Point 21 °F    
Average Humidity 28    
Maximum Humidity 42    
Minimum Humidity 18    
Precipitation  
Precipitation 0.00 in - - ()
Sea Level Pressure  
Sea Level Pressure 30.23 in    
Wind  
Wind Speed 4 mph (ENE)    
Max Wind Speed 8 mph    
Max Gust Speed -    
Visibility 10 miles    
Events      
Averages and records for this station are not official NWS values.
T = Trace of Precipitation, MM = Missing Value Source: NWS Daily Summary

Daily Weather History Graph

Daily Weather History Graph

Search for Another Location

Airport or City:

Trip Planner

Search our weather history database for the weather conditions in past years. The results will help you decide how hot, cold, wet, or windy it might be!

Date:

Astronomy

Nov. 06, 2013 Rise Set
Actual Time 6:24 AM PST 4:55 PM PST
Civil Twilight 5:57 AM PST 5:22 PM PST
Nautical Twilight 5:26 AM PST 5:52 PM PST
Astronomical Twilight 4:56 AM PST 6:22 PM PST
Moon 9:41 AM PST 8:07 PM PST
Length of Visible Light 11h 24m
Length of Day
10h 31m
Waxing Crescent, 14% of the Moon is Illuminated
Nov 6
Waxing Crescent
Nov 9
First Quarter
Nov 17
Full
Nov 25
Last Quarter
Dec 2
New

Hourly Weather History & Observations

Time (PST) Temp. Windchill Dew Point Humidity Pressure Visibility Wind Dir Wind Speed Gust Speed Precip Events Conditions
12:15 AM 46.4 °F 42.9 °F 17.6 °F 32% 30.24 in 10.0 mi ESE 6.9 mph - N/A   Clear
12:35 AM 44.6 °F 41.4 °F 17.6 °F 34% 30.24 in 10.0 mi ESE 5.8 mph - N/A   Clear
12:55 AM 39.2 °F 35.0 °F 15.8 °F 39% 30.25 in 10.0 mi SSW 5.8 mph - N/A   Clear
1:15 AM 39.2 °F - 15.8 °F 39% 30.25 in 10.0 mi Calm Calm - N/A   Clear
1:35 AM 42.8 °F 41.1 °F 17.6 °F 36% 30.25 in 10.0 mi SE 3.5 mph - N/A   Clear
1:55 AM 41.0 °F 39.0 °F 15.8 °F 36% 30.25 in 10.0 mi SE 3.5 mph - N/A   Clear
2:15 AM 42.8 °F 39.3 °F 15.8 °F 34% 30.24 in 10.0 mi East 5.8 mph - N/A   Clear
2:35 AM 41.0 °F 37.1 °F 15.8 °F 36% 30.23 in 10.0 mi East 5.8 mph - N/A   Clear
2:55 AM 39.2 °F 35.9 °F 15.8 °F 39% 30.23 in 10.0 mi East 4.6 mph - N/A   Clear
3:15 AM 39.2 °F - 17.6 °F 42% 30.22 in 10.0 mi Calm Calm - N/A   Clear
3:35 AM 41.0 °F 38.0 °F 17.6 °F 39% 30.22 in 10.0 mi ESE 4.6 mph - N/A   Clear
3:55 AM 41.0 °F 37.1 °F 15.8 °F 36% 30.22 in 10.0 mi East 5.8 mph - N/A   Clear
4:15 AM 42.8 °F 40.1 °F 15.8 °F 34% 30.22 in 10.0 mi East 4.6 mph - N/A   Clear
4:35 AM 42.8 °F 41.1 °F 15.8 °F 34% 30.23 in 10.0 mi East 3.5 mph - N/A   Clear
4:55 AM 42.8 °F - 15.8 °F 34% 30.24 in 10.0 mi Calm Calm - N/A   Clear
5:15 AM 42.8 °F 39.3 °F 15.8 °F 34% 30.24 in 10.0 mi ENE 5.8 mph - N/A   Clear
5:35 AM 41.0 °F 39.0 °F 15.8 °F 36% 30.24 in 10.0 mi ENE 3.5 mph - N/A   Clear
5:55 AM 39.2 °F - 15.8 °F 39% 30.24 in 10.0 mi Calm Calm - N/A   Clear
6:15 AM 37.4 °F - 14.0 °F 38% 30.25 in 10.0 mi Calm Calm - N/A   Clear
6:35 AM 37.4 °F - 14.0 °F 38% 30.25 in 10.0 mi Calm Calm - N/A   Clear
6:55 AM 37.4 °F - 12.2 °F 36% 30.26 in 10.0 mi Calm Calm - N/A   Clear
7:15 AM 37.4 °F - 12.2 °F 36% 30.27 in 10.0 mi Calm Calm - N/A   Clear
7:35 AM 42.8 °F 41.1 °F 15.8 °F 34% 30.28 in 10.0 mi SSE 3.5 mph - N/A   Clear
7:55 AM 46.4 °F - 17.6 °F 32% 30.29 in 10.0 mi Calm Calm - N/A   Clear
8:15 AM 50.0 °F - 19.4 °F 30% 30.30 in 10.0 mi Calm Calm - N/A   Clear
8:35 AM 53.6 °F - 19.4 °F 26% 30.30 in 9.0 mi Calm Calm - N/A   Clear
8:55 AM 55.4 °F - 19.4 °F 25% 30.30 in 10.0 mi Calm Calm - N/A   Clear
9:15 AM 57.2 °F - 21.2 °F 25% 30.29 in 10.0 mi Calm Calm - N/A   Clear
9:35 AM 59.0 °F - 21.2 °F 23% 30.29 in 10.0 mi SSE 3.5 mph - N/A   Clear
9:55 AM 60.8 °F - 23.0 °F 23% 30.29 in 10.0 mi Calm Calm - N/A   Clear
10:15 AM 62.6 °F - 24.8 °F 24% 30.28 in 10.0 mi Calm Calm - N/A   Clear
10:35 AM 64.4 °F - 24.8 °F 22% 30.28 in 10.0 mi Calm Calm - N/A   Clear
10:55 AM 66.2 °F - 24.8 °F 21% 30.27 in 10.0 mi West 5.8 mph - N/A   Clear
11:15 AM 66.2 °F - 26.6 °F 23% 30.27 in 10.0 mi NNW 5.8 mph - N/A   Clear
11:35 AM 68.0 °F - 26.6 °F 21% 30.26 in 10.0 mi NNW 3.5 mph - N/A   Clear
11:55 AM 69.8 °F - 26.6 °F 20% 30.25 in 10.0 mi NNE 5.8 mph - N/A   Clear
12:15 PM 71.6 °F - 26.6 °F 19% 30.24 in 10.0 mi NNW 6.9 mph - N/A   Clear
12:35 PM 71.6 °F - 26.6 °F 19% 30.23 in 10.0 mi NNW 6.9 mph - N/A   Clear
12:55 PM 71.6 °F - 26.6 °F 19% 30.22 in 10.0 mi NNW 6.9 mph - N/A   Clear
1:15 PM 71.6 °F - 26.6 °F 19% 30.21 in 10.0 mi North 6.9 mph - N/A   Clear
1:35 PM 73.4 °F - 26.6 °F 18% 30.20 in 10.0 mi North 6.9 mph - N/A   Clear
1:55 PM 73.4 °F - 28.4 °F 19% 30.20 in 10.0 mi North 8.1 mph - N/A   Clear
2:15 PM 73.4 °F - 28.4 °F 19% 30.20 in 10.0 mi WNW 8.1 mph - N/A   Clear
2:35 PM 73.4 °F - 28.4 °F 19% 30.20 in 10.0 mi NW 5.8 mph - N/A   Clear
2:55 PM 71.6 °F - 28.4 °F 20% 30.19 in 10.0 mi NW 6.9 mph - N/A   Clear
3:15 PM 71.6 °F - 26.6 °F 19% 30.19 in 10.0 mi NW 6.9 mph - N/A   Clear
3:35 PM 71.6 °F - 28.4 °F 20% 30.20 in 10.0 mi NW 6.9 mph - N/A   Clear
3:55 PM 71.6 °F - 26.6 °F 19% 30.19 in 10.0 mi NNW 5.8 mph - N/A   Clear
4:15 PM 71.6 °F - 26.6 °F 19% 30.19 in 10.0 mi North 4.6 mph - N/A   Clear
4:35 PM 69.8 °F - 26.6 °F 20% 30.19 in 10.0 mi North 3.5 mph - N/A   Clear
4:55 PM 68.0 °F - 26.6 °F 21% 30.19 in 4.0 mi North 4.6 mph - N/A   Clear
5:15 PM 66.2 °F - 26.6 °F 23% 30.19 in 10.0 mi North 5.8 mph - N/A   Clear
5:35 PM 64.4 °F - 26.6 °F 24% 30.19 in 10.0 mi North 3.5 mph - N/A   Clear
5:55 PM 60.8 °F - 24.8 °F 25% 30.20 in 10.0 mi Calm Calm - N/A   Clear
6:15 PM 59.0 °F - 24.8 °F 27% 30.21 in 10.0 mi Calm Calm - N/A   Clear
6:35 PM 60.8 °F - 24.8 °F 25% 30.21 in 10.0 mi Calm Calm - N/A   Clear
6:55 PM 57.2 °F - 23.0 °F 27% 30.21 in 10.0 mi ENE 4.6 mph - N/A   Clear
7:15 PM 53.6 °F - 21.2 °F 28% 30.22 in 10.0 mi SSE 3.5 mph - N/A   Clear
7:35 PM 53.6 °F - 21.2 °F 28% 30.22 in 10.0 mi Calm Calm - N/A   Clear
7:55 PM 51.8 °F - 21.2 °F 30% 30.21 in 10.0 mi Calm Calm - N/A   Clear
8:15 PM 51.8 °F - 21.2 °F 30% 30.21 in 10.0 mi SSE 3.5 mph - N/A   Clear
8:35 PM 50.0 °F - 19.4 °F 30% 30.21 in 10.0 mi SSE 4.6 mph - N/A   Clear
8:55 PM 51.8 °F - 19.4 °F 28% 30.21 in 10.0 mi SSE 6.9 mph - N/A   Clear
9:15 PM 51.8 °F - 21.2 °F 30% 30.20 in 10.0 mi SE 4.6 mph - N/A   Clear
9:35 PM 48.2 °F - 19.4 °F 32% 30.20 in 10.0 mi SSE 4.6 mph - N/A   Clear
9:55 PM 50.0 °F - 19.4 °F 30% 30.20 in 10.0 mi SE 6.9 mph - N/A   Clear
10:15 PM 50.0 °F - 19.4 °F 30% 30.20 in 10.0 mi SE 4.6 mph - N/A   Clear
10:35 PM 46.4 °F 44.3 °F 19.4 °F 34% 30.20 in 10.0 mi ESE 4.6 mph - N/A   Clear
10:55 PM 50.0 °F - 19.4 °F 30% 30.19 in 10.0 mi East 6.9 mph - N/A   Clear
11:15 PM 48.2 °F - 19.4 °F 32% 30.20 in 10.0 mi East 4.6 mph - N/A   Clear
11:35 PM 48.2 °F - 17.6 °F 30% 30.19 in 10.0 mi Calm Calm - N/A   Clear
11:55 PM 46.4 °F - 17.6 °F 32% 30.19 in 10.0 mi Calm Calm - N/A   Clear